Location: L�Ave Maria
(50.7161°N, 1.5911°E)
Time: 13:26:46
(UTC+00:00)

Cosmos 44 - Pass Details

Date: 10 July 2020
Orbit: 587 x 775 km, 65.1° (Epoch: 06 August)

Event Time Altitude Azimuth Distance (km) Brightness Sun altitude
Exits shadow 23:23:13 - 241° (WSW) 2,816 6.2 -16.8°
Reaches altitude 10° 23:25:31 10° 248° (WSW) 1,929 5.5 -16.8°
Maximum altitude 23:29:38 42° 320° (NW) 878 4.3 -16.9°
Drops below altitude 10° 23:33:56 10° 32° (NNE) 2,011 6.4 -17.0°
Sets 23:36:23 0° 40° (NE) 2,952 7.2 -17.0°
